Year,Month,Day,Hour,Minute,Value (Times are PST for temperature in C)
2019,03,30,00,00,7.50
2019,03,30,00,01,7.40
2019,03,30,00,02,7.40
2019,03,30,00,03,7.30
2019,03,30,00,04,7.20
2019,03,30,00,05,7.20
2019,03,30,00,06,7.10
2019,03,30,00,07,7.00
2019,03,30,00,08,7.00
2019,03,30,00,09,7.00
2019,03,30,00,10,6.90
2019,03,30,00,11,6.90
2019,03,30,00,12,6.80
2019,03,30,00,13,6.80
2019,03,30,00,14,6.80
2019,03,30,00,15,6.80
2019,03,30,00,16,6.70
2019,03,30,00,17,6.70
2019,03,30,00,18,6.60
2019,03,30,00,19,6.60
2019,03,30,00,20,6.60
2019,03,30,00,21,6.50
2019,03,30,00,22,6.50
2019,03,30,00,23,6.50
2019,03,30,00,24,6.40
2019,03,30,00,25,6.40
2019,03,30,00,26,6.40
2019,03,30,00,27,6.40
2019,03,30,00,28,6.30
2019,03,30,00,29,6.30
2019,03,30,00,30,6.30
2019,03,30,00,31,6.30
2019,03,30,00,32,6.30
2019,03,30,00,33,6.30
2019,03,30,00,34,6.30
2019,03,30,00,35,6.30
2019,03,30,00,36,6.20
2019,03,30,00,37,6.20
2019,03,30,00,38,6.20
2019,03,30,00,39,6.20
2019,03,30,00,40,6.20
2019,03,30,00,41,6.10
2019,03,30,00,42,6.10
2019,03,30,00,43,6.10
2019,03,30,00,44,6.10
2019,03,30,00,45,6.10
2019,03,30,00,46,6.00
2019,03,30,00,47,6.00
2019,03,30,00,48,6.00
2019,03,30,00,49,5.90
2019,03,30,00,50,5.90
2019,03,30,00,51,5.90
2019,03,30,00,52,5.90
2019,03,30,00,53,5.90
2019,03,30,00,54,5.90
2019,03,30,00,55,5.90
2019,03,30,00,56,5.80
2019,03,30,00,57,5.80
2019,03,30,00,58,5.80
2019,03,30,00,59,5.80
2019,03,30,01,00,5.80
2019,03,30,01,01,5.70
2019,03,30,01,02,5.70
2019,03,30,01,03,5.70
2019,03,30,01,04,5.70
2019,03,30,01,05,5.70
2019,03,30,01,06,5.70
2019,03,30,01,07,5.60
2019,03,30,01,08,5.60
2019,03,30,01,09,5.60
2019,03,30,01,10,5.60
2019,03,30,01,11,5.60
2019,03,30,01,12,5.50
2019,03,30,01,13,5.50
2019,03,30,01,14,5.50
2019,03,30,01,15,5.50
2019,03,30,01,16,5.50
2019,03,30,01,17,5.50
2019,03,30,01,18,5.50
2019,03,30,01,19,5.50
2019,03,30,01,20,5.50
2019,03,30,01,21,5.50
2019,03,30,01,22,5.50
2019,03,30,01,23,5.50
2019,03,30,01,24,5.60
2019,03,30,01,25,5.50
2019,03,30,01,26,5.50
2019,03,30,01,27,5.50
2019,03,30,01,28,5.50
2019,03,30,01,29,5.40
2019,03,30,01,30,5.40
2019,03,30,01,31,5.40
2019,03,30,01,32,5.40
2019,03,30,01,33,5.40
2019,03,30,01,34,5.40
2019,03,30,01,35,5.40
2019,03,30,01,36,5.30
2019,03,30,01,37,5.30
2019,03,30,01,38,5.30
2019,03,30,01,39,5.30
2019,03,30,01,40,5.20
2019,03,30,01,41,5.20
2019,03,30,01,42,5.20
2019,03,30,01,43,5.20
2019,03,30,01,44,5.20
2019,03,30,01,45,5.20
2019,03,30,01,46,5.20
2019,03,30,01,47,5.20
2019,03,30,01,48,5.10
2019,03,30,01,49,5.10
2019,03,30,01,50,5.10
2019,03,30,01,51,5.10
2019,03,30,01,52,5.10
2019,03,30,01,53,5.20
2019,03,30,01,54,5.20
2019,03,30,01,55,5.20
2019,03,30,01,56,5.20
2019,03,30,01,57,5.20
2019,03,30,01,58,5.20
2019,03,30,01,59,5.20
2019,03,30,02,00,5.20
2019,03,30,02,01,5.20
2019,03,30,02,02,5.20
2019,03,30,02,03,5.20
2019,03,30,02,04,5.10
2019,03,30,02,05,5.10
2019,03,30,02,06,5.10
2019,03,30,02,07,5.10
2019,03,30,02,08,5.10
2019,03,30,02,09,5.00
2019,03,30,02,10,5.00
2019,03,30,02,11,5.00
2019,03,30,02,12,5.00
2019,03,30,02,13,5.00
2019,03,30,02,14,5.00
2019,03,30,02,15,5.10
2019,03,30,02,16,5.10
2019,03,30,02,17,5.10
2019,03,30,02,18,5.00
2019,03,30,02,19,5.00
2019,03,30,02,20,5.00
2019,03,30,02,21,5.00
2019,03,30,02,22,5.10
2019,03,30,02,23,5.10
2019,03,30,02,24,5.10
2019,03,30,02,25,5.10
2019,03,30,02,26,5.10
2019,03,30,02,27,5.10
2019,03,30,02,28,5.00
2019,03,30,02,29,5.00
2019,03,30,02,30,5.00
2019,03,30,02,31,5.00
2019,03,30,02,32,4.90
2019,03,30,02,33,4.90
2019,03,30,02,34,4.90
2019,03,30,02,35,4.90
2019,03,30,02,36,4.90
2019,03,30,02,37,4.80
2019,03,30,02,38,4.80
2019,03,30,02,39,4.80
2019,03,30,02,40,4.80
2019,03,30,02,41,4.90
2019,03,30,02,42,4.90
2019,03,30,02,43,4.90
2019,03,30,02,44,4.90
2019,03,30,02,45,4.90
2019,03,30,02,46,4.90
2019,03,30,02,47,5.00
2019,03,30,02,48,5.00
2019,03,30,02,49,5.00
2019,03,30,02,50,4.90
2019,03,30,02,51,4.90
2019,03,30,02,52,4.90
2019,03,30,02,53,4.90
2019,03,30,02,54,4.90
2019,03,30,02,55,4.90
2019,03,30,02,56,4.90
2019,03,30,02,57,4.90
2019,03,30,02,58,4.90
2019,03,30,02,59,4.90
2019,03,30,03,00,4.90
2019,03,30,03,01,4.90
2019,03,30,03,02,4.80
2019,03,30,03,03,4.80
2019,03,30,03,04,4.80
2019,03,30,03,05,4.70
2019,03,30,03,06,4.70
2019,03,30,03,07,4.70
2019,03,30,03,08,4.60
2019,03,30,03,09,4.60
2019,03,30,03,10,4.60
2019,03,30,03,11,4.50
2019,03,30,03,12,4.50
2019,03,30,03,13,4.50
2019,03,30,03,14,4.40
2019,03,30,03,15,4.40
2019,03,30,03,16,4.40
2019,03,30,03,17,4.40
2019,03,30,03,18,4.40
2019,03,30,03,19,4.40
2019,03,30,03,20,4.40
2019,03,30,03,21,4.40
2019,03,30,03,22,4.40
2019,03,30,03,23,4.40
2019,03,30,03,24,4.40
2019,03,30,03,25,4.40
2019,03,30,03,26,4.40
2019,03,30,03,27,4.40
2019,03,30,03,28,4.40
2019,03,30,03,29,4.40
2019,03,30,03,30,4.40
2019,03,30,03,31,4.40
2019,03,30,03,32,4.40
2019,03,30,03,33,4.40
2019,03,30,03,34,4.40
2019,03,30,03,35,4.40
2019,03,30,03,36,4.40
2019,03,30,03,37,4.40
2019,03,30,03,38,4.40
2019,03,30,03,39,4.40
2019,03,30,03,40,4.30
2019,03,30,03,41,4.20
2019,03,30,03,42,4.20
2019,03,30,03,43,4.10
2019,03,30,03,44,4.10
2019,03,30,03,45,4.10
2019,03,30,03,46,4.00
2019,03,30,03,47,4.00
2019,03,30,03,48,3.90
2019,03,30,03,49,3.90
2019,03,30,03,50,3.90
2019,03,30,03,51,3.80
2019,03,30,03,52,3.80
2019,03,30,03,53,3.80
2019,03,30,03,54,3.80
2019,03,30,03,55,3.80
2019,03,30,03,56,3.80
2019,03,30,03,57,3.80
2019,03,30,03,58,3.80
2019,03,30,03,59,3.80
2019,03,30,04,00,3.80
2019,03,30,04,01,3.80
2019,03,30,04,02,3.80
2019,03,30,04,03,3.80
2019,03,30,04,04,3.80
2019,03,30,04,05,3.80
2019,03,30,04,06,3.80
2019,03,30,04,07,3.70
2019,03,30,04,08,3.70
2019,03,30,04,09,3.70
2019,03,30,04,10,3.70
2019,03,30,04,11,3.70
2019,03,30,04,12,3.70
2019,03,30,04,13,3.70
2019,03,30,04,14,3.70
2019,03,30,04,15,3.70
2019,03,30,04,16,3.60
2019,03,30,04,17,3.60
2019,03,30,04,18,3.60
2019,03,30,04,19,3.60
2019,03,30,04,20,3.60
2019,03,30,04,21,3.60
2019,03,30,04,22,3.60
2019,03,30,04,23,3.60
2019,03,30,04,24,3.60
2019,03,30,04,25,3.60
2019,03,30,04,26,3.60
2019,03,30,04,27,3.70
2019,03,30,04,28,3.70
2019,03,30,04,29,3.70
2019,03,30,04,30,3.60
2019,03,30,04,31,3.60
2019,03,30,04,32,3.60
2019,03,30,04,33,3.50
2019,03,30,04,34,3.50
2019,03,30,04,35,3.50
2019,03,30,04,36,3.40
2019,03,30,04,37,3.40
2019,03,30,04,38,3.40
2019,03,30,04,39,3.40
2019,03,30,04,40,3.40
2019,03,30,04,41,3.40
2019,03,30,04,42,3.40
2019,03,30,04,43,3.40
2019,03,30,04,44,3.40
2019,03,30,04,45,3.40
2019,03,30,04,46,3.40
2019,03,30,04,47,3.30
2019,03,30,04,48,3.40
2019,03,30,04,49,3.40
2019,03,30,04,50,3.40
2019,03,30,04,51,3.40
2019,03,30,04,52,3.40
2019,03,30,04,53,3.40
2019,03,30,04,54,3.30
2019,03,30,04,55,3.30
2019,03,30,04,56,3.30
2019,03,30,04,57,3.30
2019,03,30,04,58,3.20
2019,03,30,04,59,3.20
2019,03,30,05,00,3.20
2019,03,30,05,01,3.20
2019,03,30,05,02,3.10
2019,03,30,05,03,3.10
2019,03,30,05,04,3.10
2019,03,30,05,05,3.10
2019,03,30,05,06,3.00
2019,03,30,05,07,3.00
2019,03,30,05,08,3.00
2019,03,30,05,09,2.90
2019,03,30,05,10,2.90
2019,03,30,05,11,2.90
2019,03,30,05,12,2.90
2019,03,30,05,13,2.90
2019,03,30,05,14,2.90
2019,03,30,05,15,2.90
2019,03,30,05,16,2.90
2019,03,30,05,17,2.80
2019,03,30,05,18,2.80
2019,03,30,05,19,2.80
2019,03,30,05,20,2.80
2019,03,30,05,21,2.80
2019,03,30,05,22,2.80
2019,03,30,05,23,2.80
2019,03,30,05,24,2.80
2019,03,30,05,25,2.80
2019,03,30,05,26,2.80
2019,03,30,05,27,2.80
2019,03,30,05,28,2.80
2019,03,30,05,29,2.70
2019,03,30,05,30,2.70
2019,03,30,05,31,2.70
2019,03,30,05,32,2.70
2019,03,30,05,33,2.60
2019,03,30,05,34,2.60
2019,03,30,05,35,2.60
2019,03,30,05,36,2.60
2019,03,30,05,37,2.60
2019,03,30,05,38,2.60
2019,03,30,05,39,2.60
2019,03,30,05,40,2.60
2019,03,30,05,41,2.50
2019,03,30,05,42,2.50
2019,03,30,05,43,2.50
2019,03,30,05,44,2.50
2019,03,30,05,45,2.50
2019,03,30,05,46,2.50
2019,03,30,05,47,2.50
2019,03,30,05,48,2.60
2019,03,30,05,49,2.60
2019,03,30,05,50,2.60
2019,03,30,05,51,2.60
2019,03,30,05,52,2.60
2019,03,30,05,53,2.60
2019,03,30,05,54,2.60
2019,03,30,05,55,2.60
2019,03,30,05,56,2.60
2019,03,30,05,57,2.60
2019,03,30,05,58,2.50
2019,03,30,05,59,2.50
2019,03,30,06,00,2.50
2019,03,30,06,01,2.40
2019,03,30,06,02,2.40
2019,03,30,06,03,2.40
2019,03,30,06,04,2.40
2019,03,30,06,05,2.40
2019,03,30,06,06,2.30
2019,03,30,06,07,2.30
2019,03,30,06,08,2.30
2019,03,30,06,09,2.30
2019,03,30,06,10,2.30
2019,03,30,06,11,2.30
2019,03,30,06,12,2.30
2019,03,30,06,13,2.30
2019,03,30,06,14,2.30
2019,03,30,06,15,2.30
2019,03,30,06,16,2.30
2019,03,30,06,17,2.30
2019,03,30,06,18,2.30
2019,03,30,06,19,2.30
2019,03,30,06,20,2.30
2019,03,30,06,21,2.30
2019,03,30,06,22,2.30
2019,03,30,06,23,2.30
2019,03,30,06,24,2.30
2019,03,30,06,25,2.40
2019,03,30,06,26,2.40
2019,03,30,06,27,2.40
2019,03,30,06,28,2.40
2019,03,30,06,29,2.30
2019,03,30,06,30,2.30
2019,03,30,06,31,2.30
2019,03,30,06,32,2.30
2019,03,30,06,33,2.30
2019,03,30,06,34,2.30
2019,03,30,06,35,2.30
2019,03,30,06,36,2.20
2019,03,30,06,37,2.20
2019,03,30,06,38,2.20
2019,03,30,06,39,2.10
2019,03,30,06,40,2.10
2019,03,30,06,41,2.10
2019,03,30,06,42,2.10
2019,03,30,06,43,2.10
2019,03,30,06,44,2.00
2019,03,30,06,45,2.00
2019,03,30,06,46,2.00
2019,03,30,06,47,2.00
2019,03,30,06,48,2.00
2019,03,30,06,49,2.00
2019,03,30,06,50,2.00
2019,03,30,06,51,2.00
2019,03,30,06,52,2.00
2019,03,30,06,53,2.00
2019,03,30,06,54,2.00
2019,03,30,06,55,2.00
2019,03,30,06,56,2.00
2019,03,30,06,57,2.00
2019,03,30,06,58,1.90
2019,03,30,06,59,1.90
2019,03,30,07,00,1.90
2019,03,30,07,01,1.90
2019,03,30,07,02,1.90
2019,03,30,07,03,1.80
2019,03,30,07,04,1.80
2019,03,30,07,05,1.80
2019,03,30,07,06,1.80
2019,03,30,07,07,1.80
2019,03,30,07,08,1.80
2019,03,30,07,09,1.80
2019,03,30,07,10,1.80
2019,03,30,07,11,1.80
2019,03,30,07,12,1.70
2019,03,30,07,13,1.70
2019,03,30,07,14,1.70
2019,03,30,07,15,1.70
2019,03,30,07,16,1.70
2019,03,30,07,17,1.70
2019,03,30,07,18,1.70
2019,03,30,07,19,1.70
2019,03,30,07,20,1.70
2019,03,30,07,21,1.70
2019,03,30,07,22,1.70
2019,03,30,07,23,1.70
2019,03,30,07,24,1.70
2019,03,30,07,25,1.70
2019,03,30,07,26,1.70
2019,03,30,07,27,1.70
2019,03,30,07,28,1.70
2019,03,30,07,29,1.70
2019,03,30,07,30,1.80
2019,03,30,07,31,1.80
2019,03,30,07,32,1.80
2019,03,30,07,33,1.80
2019,03,30,07,34,1.80
2019,03,30,07,35,1.80
2019,03,30,07,36,1.90
2019,03,30,07,37,1.90
2019,03,30,07,38,1.90
2019,03,30,07,39,1.90
2019,03,30,07,40,2.00
2019,03,30,07,41,2.00
2019,03,30,07,42,2.00
2019,03,30,07,43,2.10
2019,03,30,07,44,2.10
2019,03,30,07,45,2.10
2019,03,30,07,46,2.10
2019,03,30,07,47,2.20
2019,03,30,07,48,2.20
2019,03,30,07,49,2.20
2019,03,30,07,50,2.30
2019,03,30,07,51,2.30
2019,03,30,07,52,2.30
2019,03,30,07,53,2.40
2019,03,30,07,54,2.40
2019,03,30,07,55,2.50
2019,03,30,07,56,2.50
2019,03,30,07,57,2.60
2019,03,30,07,58,2.60
2019,03,30,07,59,2.60
2019,03,30,08,00,2.60
2019,03,30,08,01,2.70
2019,03,30,08,02,2.70
2019,03,30,08,03,2.70
2019,03,30,08,04,2.80
2019,03,30,08,05,2.80
2019,03,30,08,06,2.80
2019,03,30,08,07,2.90
2019,03,30,08,08,2.90
2019,03,30,08,09,3.00
2019,03,30,08,10,3.00
2019,03,30,08,11,3.10
2019,03,30,08,12,3.10
2019,03,30,08,13,3.20
2019,03,30,08,14,3.20
2019,03,30,08,15,3.20
2019,03,30,08,16,3.20
2019,03,30,08,17,3.30
2019,03,30,08,18,3.30
2019,03,30,08,19,3.40
2019,03,30,08,20,3.40
2019,03,30,08,21,3.50
2019,03,30,08,22,3.50
2019,03,30,08,23,3.60
2019,03,30,08,24,3.60
2019,03,30,08,25,3.70
2019,03,30,08,26,3.70
2019,03,30,08,27,3.80
2019,03,30,08,28,3.80
2019,03,30,08,29,3.90
2019,03,30,08,30,3.90
2019,03,30,08,31,4.00
2019,03,30,08,32,4.00
2019,03,30,08,33,4.10
2019,03,30,08,34,4.10
2019,03,30,08,35,4.20
2019,03,30,08,36,4.30
2019,03,30,08,37,4.40
2019,03,30,08,38,4.50
2019,03,30,08,39,4.60
2019,03,30,08,40,4.70
2019,03,30,08,41,4.70
2019,03,30,08,42,4.80
2019,03,30,08,43,4.80
2019,03,30,08,44,4.90
2019,03,30,08,45,5.00
2019,03,30,08,46,5.00
2019,03,30,08,47,5.10
2019,03,30,08,48,5.20
2019,03,30,08,49,5.20
2019,03,30,08,50,5.30
2019,03,30,08,51,5.40
2019,03,30,08,52,5.40
2019,03,30,08,53,5.50
2019,03,30,08,54,5.60
2019,03,30,08,55,5.70
2019,03,30,08,56,5.80
2019,03,30,08,57,5.90
2019,03,30,08,58,6.00
2019,03,30,08,59,6.10
2019,03,30,09,00,6.20
2019,03,30,09,01,6.20
2019,03,30,09,02,6.30
2019,03,30,09,03,6.40
2019,03,30,09,04,6.50
2019,03,30,09,05,6.60
2019,03,30,09,06,6.70
2019,03,30,09,07,6.80
2019,03,30,09,08,6.90
2019,03,30,09,09,7.00
2019,03,30,09,10,7.10
2019,03,30,09,11,7.20
2019,03,30,09,12,7.30
2019,03,30,09,13,7.40
2019,03,30,09,14,7.60
2019,03,30,09,15,7.70
2019,03,30,09,16,7.80
2019,03,30,09,17,7.80
2019,03,30,09,18,7.90
2019,03,30,09,19,8.00
2019,03,30,09,20,8.10
2019,03,30,09,21,8.20
2019,03,30,09,22,8.20
2019,03,30,09,23,8.30
2019,03,30,09,24,8.40
2019,03,30,09,25,8.40
2019,03,30,09,26,8.50
2019,03,30,09,27,8.50
2019,03,30,09,28,8.60
2019,03,30,09,29,8.60
2019,03,30,09,30,8.70
2019,03,30,09,31,8.70
2019,03,30,09,32,8.80
2019,03,30,09,33,8.80
2019,03,30,09,34,8.80
2019,03,30,09,35,8.90
2019,03,30,09,36,8.90
2019,03,30,09,37,8.90
2019,03,30,09,38,8.90
2019,03,30,09,39,9.00
2019,03,30,09,40,9.00
2019,03,30,09,41,9.00
2019,03,30,09,42,9.10
2019,03,30,09,43,9.10
2019,03,30,09,44,9.10
2019,03,30,09,45,9.10
2019,03,30,09,46,9.10
2019,03,30,09,47,9.20
2019,03,30,09,48,9.20
2019,03,30,09,49,9.20
2019,03,30,09,50,9.20
2019,03,30,09,51,9.30
2019,03,30,09,52,9.40
2019,03,30,09,53,9.40
2019,03,30,09,54,9.40
2019,03,30,09,55,9.50
2019,03,30,09,56,9.60
2019,03,30,09,57,9.60
2019,03,30,09,58,9.60
2019,03,30,09,59,9.70
2019,03,30,10,00,9.70
2019,03,30,10,01,9.80
2019,03,30,10,02,9.80
2019,03,30,10,03,9.90
2019,03,30,10,04,9.90
2019,03,30,10,05,10.00
2019,03,30,10,06,10.00
2019,03,30,10,07,10.10
2019,03,30,10,08,10.10
2019,03,30,10,09,10.20
2019,03,30,10,10,10.20
2019,03,30,10,11,10.20
2019,03,30,10,12,10.30
2019,03,30,10,13,10.30
2019,03,30,10,14,10.30
2019,03,30,10,15,10.30
2019,03,30,10,16,10.40
2019,03,30,10,17,10.50
2019,03,30,10,18,10.50
2019,03,30,10,19,10.50
2019,03,30,10,20,10.50
2019,03,30,10,21,10.50
2019,03,30,10,22,10.60
2019,03,30,10,23,10.60
2019,03,30,10,24,10.60
2019,03,30,10,25,10.60
2019,03,30,10,26,10.60
2019,03,30,10,27,10.70
2019,03,30,10,28,10.70
2019,03,30,10,29,10.80
2019,03,30,10,30,10.90
2019,03,30,10,31,10.90
2019,03,30,10,32,10.90
2019,03,30,10,33,11.00
2019,03,30,10,34,11.00
2019,03,30,10,35,11.10
2019,03,30,10,36,11.10
2019,03,30,10,37,11.10
2019,03,30,10,38,11.10
2019,03,30,10,39,11.10
2019,03,30,10,40,11.20
2019,03,30,10,41,11.20
2019,03,30,10,42,11.30
2019,03,30,10,43,11.30
2019,03,30,10,44,11.30
2019,03,30,10,45,11.40
2019,03,30,10,46,11.40
2019,03,30,10,47,11.40
2019,03,30,10,48,11.50
2019,03,30,10,49,11.50
2019,03,30,10,50,11.60
2019,03,30,10,51,11.60
2019,03,30,10,52,11.70
2019,03,30,10,53,11.70
2019,03,30,10,54,11.70
2019,03,30,10,55,11.80
2019,03,30,10,56,11.80
2019,03,30,10,57,11.80
2019,03,30,10,58,11.80
2019,03,30,10,59,11.80
2019,03,30,11,00,11.80
2019,03,30,11,01,11.80
2019,03,30,11,02,11.90
2019,03,30,11,03,12.00
2019,03,30,11,04,12.00
2019,03,30,11,05,12.10
2019,03,30,11,06,12.10
2019,03,30,11,07,12.10
2019,03,30,11,08,12.20
2019,03,30,11,09,12.20
2019,03,30,11,10,12.30
2019,03,30,11,11,12.30
2019,03,30,11,12,12.30
2019,03,30,11,13,12.30
2019,03,30,11,14,12.20
2019,03,30,11,15,12.20
2019,03,30,11,16,12.30
2019,03,30,11,17,12.30
2019,03,30,11,18,12.40
2019,03,30,11,19,12.50
2019,03,30,11,20,12.60
2019,03,30,11,21,12.70
2019,03,30,11,22,12.70
2019,03,30,11,23,12.80
2019,03,30,11,24,12.80
2019,03,30,11,25,12.90
2019,03,30,11,26,12.90
2019,03,30,11,27,12.90
2019,03,30,11,28,13.00
2019,03,30,11,29,13.00
2019,03,30,11,30,13.00
2019,03,30,11,31,13.10
2019,03,30,11,32,13.10
2019,03,30,11,33,13.10
2019,03,30,11,34,13.10
2019,03,30,11,35,13.20
2019,03,30,11,36,13.20
2019,03,30,11,37,13.20
2019,03,30,11,38,13.20
2019,03,30,11,39,13.30
2019,03,30,11,40,13.30
2019,03,30,11,41,13.30
2019,03,30,11,42,13.30
2019,03,30,11,43,13.30
2019,03,30,11,44,13.30
2019,03,30,11,45,13.30
2019,03,30,11,46,13.30
2019,03,30,11,47,13.30
2019,03,30,11,48,13.30
2019,03,30,11,49,13.40
2019,03,30,11,50,13.40
2019,03,30,11,51,13.40
2019,03,30,11,52,13.40
2019,03,30,11,53,13.50
2019,03,30,11,54,13.50
2019,03,30,11,55,13.50
2019,03,30,11,56,13.40
2019,03,30,11,57,13.40
2019,03,30,11,58,13.50
2019,03,30,11,59,13.60
2019,03,30,12,00,13.60
2019,03,30,12,01,13.70
2019,03,30,12,02,13.80
2019,03,30,12,03,13.80
2019,03,30,12,04,13.70
2019,03,30,12,05,13.70
2019,03,30,12,06,13.70
2019,03,30,12,07,13.80
2019,03,30,12,08,13.80
2019,03,30,12,09,13.70
2019,03,30,12,10,13.70
2019,03,30,12,11,13.70
2019,03,30,12,12,13.70
2019,03,30,12,13,13.70
2019,03,30,12,14,13.70
2019,03,30,12,15,13.70
2019,03,30,12,16,13.80
2019,03,30,12,17,13.80
2019,03,30,12,18,13.80
2019,03,30,12,19,13.80
2019,03,30,12,20,13.80
2019,03,30,12,21,13.80
2019,03,30,12,22,13.80
2019,03,30,12,23,13.90
2019,03,30,12,24,13.90
2019,03,30,12,25,13.90
2019,03,30,12,26,13.90
2019,03,30,12,27,13.90
2019,03,30,12,28,13.90
2019,03,30,12,29,13.90
2019,03,30,12,30,13.90
2019,03,30,12,31,13.90
2019,03,30,12,32,13.90
2019,03,30,12,33,13.90
2019,03,30,12,34,14.00
2019,03,30,12,35,14.10
2019,03,30,12,36,14.10
2019,03,30,12,37,14.10
2019,03,30,12,38,14.10
2019,03,30,12,39,14.10
2019,03,30,12,40,14.00
2019,03,30,12,41,14.00
2019,03,30,12,42,13.90
2019,03,30,12,43,13.90
2019,03,30,12,44,13.90
2019,03,30,12,45,13.90
2019,03,30,12,46,13.90
2019,03,30,12,47,13.90
2019,03,30,12,48,13.90
2019,03,30,12,49,13.80
2019,03,30,12,50,13.80
2019,03,30,12,51,13.70
2019,03,30,12,52,13.70
2019,03,30,12,53,13.70
2019,03,30,12,54,13.70
2019,03,30,12,55,13.70
2019,03,30,12,56,13.70
2019,03,30,12,57,13.70
2019,03,30,12,58,13.70
2019,03,30,12,59,13.70
2019,03,30,13,00,13.70
2019,03,30,13,01,13.70
2019,03,30,13,02,13.70
2019,03,30,13,03,13.70
2019,03,30,13,04,13.80
2019,03,30,13,05,13.80
2019,03,30,13,06,13.80
2019,03,30,13,07,13.90
2019,03,30,13,08,13.90
2019,03,30,13,09,14.00
2019,03,30,13,10,14.00
2019,03,30,13,11,14.00
2019,03,30,13,12,14.00
2019,03,30,13,13,14.10
2019,03,30,13,14,14.10
2019,03,30,13,15,14.10
2019,03,30,13,16,14.10
2019,03,30,13,17,14.10
2019,03,30,13,18,14.10
2019,03,30,13,19,14.10
2019,03,30,13,20,14.10
2019,03,30,13,21,14.10
2019,03,30,13,22,14.20
2019,03,30,13,23,14.10
2019,03,30,13,24,14.10
2019,03,30,13,25,14.10
2019,03,30,13,26,14.00
2019,03,30,13,27,14.00
2019,03,30,13,28,14.00
2019,03,30,13,29,14.10
2019,03,30,13,30,14.10
2019,03,30,13,31,14.00
2019,03,30,13,32,14.00
2019,03,30,13,33,13.90
2019,03,30,13,34,13.90
2019,03,30,13,35,13.90
2019,03,30,13,36,13.90
2019,03,30,13,37,13.90
2019,03,30,13,38,13.90
2019,03,30,13,39,13.80
2019,03,30,13,40,13.80
2019,03,30,13,41,13.90
2019,03,30,13,42,13.90
2019,03,30,13,43,13.90
2019,03,30,13,44,13.90
2019,03,30,13,45,13.90
2019,03,30,13,46,13.90
2019,03,30,13,47,13.90
2019,03,30,13,48,13.90
2019,03,30,13,49,13.90
2019,03,30,13,50,13.90
2019,03,30,13,51,13.90
2019,03,30,13,52,14.00
2019,03,30,13,53,14.00
2019,03,30,13,54,14.00
2019,03,30,13,55,14.00
2019,03,30,13,56,14.00
2019,03,30,13,57,14.10
2019,03,30,13,58,14.20
2019,03,30,13,59,14.20
2019,03,30,14,00,14.20
2019,03,30,14,01,14.20
2019,03,30,14,02,14.30
2019,03,30,14,03,14.30
2019,03,30,14,04,14.30
2019,03,30,14,05,14.30
2019,03,30,14,06,14.30
2019,03,30,14,07,14.20
2019,03,30,14,08,14.30
2019,03,30,14,09,14.30
2019,03,30,14,10,14.30
2019,03,30,14,11,14.40
2019,03,30,14,12,14.40
2019,03,30,14,13,14.40
2019,03,30,14,14,14.40
2019,03,30,14,15,14.30
2019,03,30,14,16,14.30
2019,03,30,14,17,14.30
2019,03,30,14,18,14.30
2019,03,30,14,19,14.30
2019,03,30,14,20,14.30
2019,03,30,14,21,14.30
2019,03,30,14,22,14.30
2019,03,30,14,23,14.30
2019,03,30,14,24,14.30
2019,03,30,14,25,14.30
2019,03,30,14,26,14.30
2019,03,30,14,27,14.30
2019,03,30,14,28,14.30
2019,03,30,14,29,14.30
2019,03,30,14,30,14.30
2019,03,30,14,31,14.40
2019,03,30,14,32,14.50
2019,03,30,14,33,14.50
2019,03,30,14,34,14.60
2019,03,30,14,35,14.60
2019,03,30,14,36,14.50
2019,03,30,14,37,14.50
2019,03,30,14,38,14.40
2019,03,30,14,39,14.40
2019,03,30,14,40,14.40
2019,03,30,14,41,14.40
2019,03,30,14,42,14.30
2019,03,30,14,43,14.30
2019,03,30,14,44,14.40
2019,03,30,14,45,14.40
2019,03,30,14,46,14.50
2019,03,30,14,47,14.50
2019,03,30,14,48,14.60
2019,03,30,14,49,14.60
2019,03,30,14,50,14.50
2019,03,30,14,51,14.50
2019,03,30,14,52,14.50
2019,03,30,14,53,14.50
2019,03,30,14,54,14.60
2019,03,30,14,55,14.60
2019,03,30,14,56,14.70
2019,03,30,14,57,14.80
2019,03,30,14,58,14.80
2019,03,30,14,59,14.90
2019,03,30,15,00,14.90
2019,03,30,15,01,14.90
2019,03,30,15,02,14.80
2019,03,30,15,03,14.80
2019,03,30,15,04,14.80
2019,03,30,15,05,14.80
2019,03,30,15,06,14.80
2019,03,30,15,07,14.80
2019,03,30,15,08,14.80
2019,03,30,15,09,14.80
2019,03,30,15,10,14.80
2019,03,30,15,11,14.80
2019,03,30,15,12,14.90
2019,03,30,15,13,14.90
2019,03,30,15,14,14.90
2019,03,30,15,15,14.90
2019,03,30,15,16,14.90
2019,03,30,15,17,14.90
2019,03,30,15,18,14.90
2019,03,30,15,19,14.90
2019,03,30,15,20,14.90
2019,03,30,15,21,14.90
2019,03,30,15,22,14.90
2019,03,30,15,23,15.00
2019,03,30,15,24,15.00
2019,03,30,15,25,15.00
2019,03,30,15,26,15.00
2019,03,30,15,27,15.00
2019,03,30,15,28,15.10
2019,03,30,15,29,15.10
2019,03,30,15,30,15.10
2019,03,30,15,31,15.20
2019,03,30,15,32,15.20
2019,03,30,15,33,15.20
2019,03,30,15,34,15.20
2019,03,30,15,35,15.20
2019,03,30,15,36,15.20
2019,03,30,15,37,15.20
2019,03,30,15,38,15.10
2019,03,30,15,39,15.10
2019,03,30,15,40,15.10
2019,03,30,15,41,15.10
2019,03,30,15,42,15.10
2019,03,30,15,43,15.20
2019,03,30,15,44,15.20
2019,03,30,15,45,15.30
2019,03,30,15,46,15.40
2019,03,30,15,47,15.40
2019,03,30,15,48,15.50
2019,03,30,15,49,15.50
2019,03,30,15,50,15.60
2019,03,30,15,51,15.60
2019,03,30,15,52,15.60
2019,03,30,15,53,15.60
2019,03,30,15,54,15.50
2019,03,30,15,55,15.50
2019,03,30,15,56,15.40
2019,03,30,15,57,15.30
2019,03,30,15,58,15.20
2019,03,30,15,59,15.10
2019,03,30,16,00,15.10
2019,03,30,16,01,15.10
2019,03,30,16,02,15.10
2019,03,30,16,03,15.10
2019,03,30,16,04,15.20
2019,03,30,16,05,15.20
2019,03,30,16,06,15.20
2019,03,30,16,07,15.30
2019,03,30,16,08,15.30
2019,03,30,16,09,15.30
2019,03,30,16,10,15.30
2019,03,30,16,11,15.30
2019,03,30,16,12,15.30
2019,03,30,16,13,15.30
2019,03,30,16,14,15.30
2019,03,30,16,15,15.30
2019,03,30,16,16,15.30
2019,03,30,16,17,15.30
2019,03,30,16,18,15.40
2019,03,30,16,19,15.40
2019,03,30,16,20,15.50
2019,03,30,16,21,15.50
2019,03,30,16,22,15.50
2019,03,30,16,23,15.50
2019,03,30,16,24,15.50
2019,03,30,16,25,15.40
2019,03,30,16,26,15.40
2019,03,30,16,27,15.30
2019,03,30,16,28,15.30
2019,03,30,16,29,15.20
2019,03,30,16,30,15.20
2019,03,30,16,31,15.20
2019,03,30,16,32,15.30
2019,03,30,16,33,15.30
2019,03,30,16,34,15.30
2019,03,30,16,35,15.30
2019,03,30,16,36,15.30
2019,03,30,16,37,15.30
2019,03,30,16,38,15.40
2019,03,30,16,39,15.40
2019,03,30,16,40,15.40
2019,03,30,16,41,15.50
2019,03,30,16,42,15.50
2019,03,30,16,43,15.50
2019,03,30,16,44,15.50
2019,03,30,16,45,15.50
2019,03,30,16,46,15.50
2019,03,30,16,47,15.60
2019,03,30,16,48,15.60
2019,03,30,16,49,15.70
2019,03,30,16,50,15.70
2019,03,30,16,51,15.70
2019,03,30,16,52,15.70
2019,03,30,16,53,15.70
2019,03,30,16,54,15.70
2019,03,30,16,55,15.70
2019,03,30,16,56,15.60
2019,03,30,16,57,15.60
2019,03,30,16,58,15.60
2019,03,30,16,59,15.60
2019,03,30,17,00,15.70
2019,03,30,17,01,15.70
2019,03,30,17,02,15.70
2019,03,30,17,03,15.80
2019,03,30,17,04,15.80
2019,03,30,17,05,15.80
2019,03,30,17,06,15.90
2019,03,30,17,07,15.90
2019,03,30,17,08,16.00
2019,03,30,17,09,16.10
2019,03,30,17,10,16.20
2019,03,30,17,11,16.20
2019,03,30,17,12,16.20
2019,03,30,17,13,16.20
2019,03,30,17,14,16.20
2019,03,30,17,15,16.10
2019,03,30,17,16,16.10
2019,03,30,17,17,16.10
2019,03,30,17,18,16.00
2019,03,30,17,19,16.00
2019,03,30,17,20,15.90
2019,03,30,17,21,15.90
2019,03,30,17,22,15.80
2019,03,30,17,23,15.80
2019,03,30,17,24,15.80
2019,03,30,17,25,15.70
2019,03,30,17,26,15.70
2019,03,30,17,27,15.70
2019,03,30,17,28,15.60
2019,03,30,17,29,15.60
2019,03,30,17,30,15.50
2019,03,30,17,31,15.40
2019,03,30,17,32,15.40
2019,03,30,17,33,15.40
2019,03,30,17,34,15.40
2019,03,30,17,35,15.40
2019,03,30,17,36,15.40
2019,03,30,17,37,15.40
2019,03,30,17,38,15.50
2019,03,30,17,39,15.50
2019,03,30,17,40,15.40
2019,03,30,17,41,15.40
2019,03,30,17,42,15.40
2019,03,30,17,43,15.40
2019,03,30,17,44,15.40
2019,03,30,17,45,15.40